Regional Weather Roundup
Issued by NWS

Home | Current Version | Previous Version | Graphics & Text | Print | Product List | Glossary On
Versions: 1 2 3 4 5 6 7 8 9 10 11 12 13 14 15 16 17 18 19 20 21 22 23 24 25 26 27 28 29 30 31 32 33 34 35 36 37 38 39 40 41 42 43 44 45 46 47 48 49 50
000
ASUS43 KOAX 211810
RWRNE

WEATHER ROUNDUP FOR NEBRASKA
NATIONAL WEATHER SERVICE OMAHA NE
1200 PM CST TUE FEB 21 2017

NOTES: SATELLITE DATA IS BEING USED TO AUGMENT CLOUD COVER ABOVE
       12000 FEET.
       "FAIR" INDICATES FEW OR NO CLOUDS BELOW 12,000 FEET WITH NO
       SIGNIFICANT WEATHER AND/OR OBSTRUCTIONS TO VISIBILITY.

  * THESE STATIONS DO NOT REPORT WEATHER SUCH AS RAIN...SNOW OR FOG.

NEZ001>004-019>022-054>056-211900-
NEBRASKA PANHANDLE

CITY           SKY/WX    TMP DP  RH WIND       PRES   REMARKS
SCOTTSBLUFF    SUNNY     69  25  19 W36G47    29.89F
6HR MIN TEMP:  27; 6HR MAX TEMP:  69;

ALLIANCE       SUNNY     68  27  21 W32G45    29.90S
6HR MIN TEMP:  30; 6HR MAX TEMP:  68;

CHADRON        SUNNY     68  32  26 W30G38    29.85S
6HR MIN TEMP:  33; 6HR MAX TEMP:  68;

KIMBALL        SUNNY     67  28  23 W32G41    29.99F
SIDNEY         SUNNY     70  25  18 W35G41    29.98F
6HR MIN TEMP:  28; 6HR MAX TEMP:  70;

$$

NEZ057>060-069>072-079>082-211900-
SOUTHWEST NEBRASKA

CITY           SKY/WX    TMP DP  RH WIND       PRES   REMARKS
NORTH PLATTE   SUNNY     68  29  23 W7        29.94F
6HR MIN TEMP:  25; 6HR MAX TEMP:  68;

IMPERIAL       SUNNY     70  24  17 W13       29.97F
6HR MIN TEMP:  33; 6HR MAX TEMP:  70;

LEXINGTON      SUNNY     66  23  19 SW12      29.95S
MCCOOK         SUNNY     67  27  22 W8        29.97F
6HR MIN TEMP:  27; 6HR MAX TEMP:  67;

OGALLALA       SUNNY     70  29  21 W20G26    29.95S
$$

NEZ005>010-023>029-035>040-094-211900-
NORTH CENTRAL NEBRASKA

CITY           SKY/WX    TMP DP  RH WIND       PRES   REMARKS
VALENTINE      SUNNY     70  30  22 W24G32    29.81S
6HR MIN TEMP:  34; 6HR MAX TEMP:  70;

AINSWORTH      SUNNY     70  34  26 W26       29.83S
BROKEN BOW     SUNNY     69  29  22 SW16      29.90F
6HR MIN TEMP:  36; 6HR MAX TEMP:  69;

O`NEILL        SUNNY     70  29  21 W15G24    29.83S
ORD            SUNNY     70  21  15 SW21      29.87F
6HR MIN TEMP:  26; 6HR MAX TEMP:  70;

THEDFORD       SUNNY     71  33  24 W20G33    29.87F
$$

NEZ041-046>049-061>064-073>077-083>087-211900-
SOUTH CENTRAL NEBRASKA

CITY           SKY/WX    TMP DP  RH WIND       PRES   REMARKS
GRAND ISLAND   SUNNY     66  30  26 SW20      29.95F
6HR MIN TEMP:  40; 6HR MAX TEMP:  66;

AURORA         SUNNY     65  34  30 SW18G26   29.95F
HASTINGS       SUNNY     66  31  27 SW14G23   29.97F
6HR MIN TEMP:  37; 6HR MAX TEMP:  66;

HEBRON         SUNNY     66  33  29 SW14G20   29.98F
HOLDREGE       SUNNY     63  24  23 SW17G23   29.96F
KEARNEY *      SUNNY     64  25  22 SW22      29.95F
YORK           SUNNY     64  36  34 SW21G26   29.95F
$$

NEZ011>018-030>034-042>045-211900-
NORTHEAST NEBRASKA

CITY           SKY/WX    TMP DP  RH WIND       PRES   REMARKS
NORFOLK        SUNNY     64  32  30 S24G36    29.86F
6HR MIN TEMP:  39; 6HR MAX TEMP:  64;

ALBION         SUNNY     67  23  18 SW20G26   29.89F
BLAIR          SUNNY     62  40  44 SW18G24   29.94F
FREMONT        SUNNY     65  36  34 SW16G25   29.94F
TEKAMAH        SUNNY     64  42  44 SW17      29.92F
6HR MIN TEMP:  30; 6HR MAX TEMP:  64;

WAYNE          SUNNY     64  36  35 SW28G35   29.86F
$$

NEZ050>053-065>068-078-088>093-211900-
SOUTHEAST NEBRASKA

CITY           SKY/WX    TMP DP  RH WIND       PRES   REMARKS
LINCOLN        SUNNY     68  35  29 SW15      29.97F
6HR MIN TEMP:  26; 6HR MAX TEMP:  68;

OMAHA EPPLEY   MOSUNNY   62  40  44 S10       29.96F
6HR MIN TEMP:  32; 6HR MAX TEMP:  62;

BEATRICE       SUNNY     67  36  32 S12       29.98F
FALLS CITY     SUNNY     59  43  55 S8        30.00F
6HR MIN TEMP:  33; 6HR MAX TEMP:  59;

NEBRASKA CITY  SUNNY     60  36  41 SW13      29.99F
PLATTSMOUTH    SUNNY     61  37  41 S12       29.98F
$$

NEZ044-045-051>053-067-211900-
OMAHA AREA

CITY           SKY/WX    TMP DP  RH WIND       PRES   REMARKS
OMAHA EPPLEY   MOSUNNY   62  40  44 S10       29.96F
6HR MIN TEMP:  32; 6HR MAX TEMP:  62;

BLAIR          SUNNY     62  40  44 SW18G24   29.94F
FREMONT        SUNNY     65  36  34 SW16G25   29.94F
MILLARD        SUNNY     64  41  42 S7        29.96F
OFFUTT AFB     SUNNY     63  41  45 S10       29.96F
PLATTSMOUTH    SUNNY     61  37  41 S12       29.98F
WAHOO          FAIR      66  35  32 SW15G21   29.95F
$$




USA.gov is the U.S. government's official web portal to all federal, state and local government web resources and services.